{"data":{"norad_id":67811,"epoch":"2026-09-19T22:44:59.481024Z","epoch_age_seconds":114200,"freshness":"FRESH","line1":"1 67811U 26032Q   26262.94791066  .00038245  00000+0  11796-2 0  9993","line2":"2 67811  97.2853  89.4099 0001938  82.0107 278.1356 15.33482927 34730","mean_motion":15.33482927,"eccentricity":0.0001938,"inclination_deg":97.2853,"raan_deg":89.4099,"arg_perigee_deg":82.0107,"mean_anomaly_deg":278.1356,"bstar":0.0011796,"rev_number":3473,"period_min":93.903882113452,"perigee_km":464.10404938674,"apogee_km":466.75661608491,"semimajor_km":6843.5673327358,"source":"CELESTRAK","updated_at":"2026-09-20T09:00:43.664720Z"}}